星链-32039 (STARLINK-32039)

导读 | 星芒AI

STARLINK-32039 是 SpaceX Starlink 项目中的一颗低轨通信卫星,属于第三代 Starlink 卫星(v1.5 或 v2 架构)。该卫星于 2024 年发射,旨在为全球提供高速互联网服务。它运行在约 550 公里的轨道高度,具备先进的相控阵天线和激光通信能力,以提升网络性能和卫星间通信效率。作为 Starlink 卫星群的一部分,STARLINK-32039 有助于扩大覆盖范围,提高连接速度,并支持偏远地区的互联网接入。

基本信息
目录编号:
60604
目录名称:
STARLINK-32039
国际标识:
2024-150X
轨道中心:
EARTH
卫星名称:
星链-32039 (STARLINK-32039)
卫星全名:
星链-32039 (STARLINK-32039)
卫星状态:
在轨 (已飞行487 天)
发射日期:
2024-08-20 UTC
国别 :
美国 (US)
星等 :
--
轨道信息
数据来源 国际轨道数据
星历时间: 2025-12-19T15:02:59+0800
22小时前
查看轨道信息
半长轴: 6853.37km
偏心率: 0.000158
轨道倾角: 53.163°
近地点辐角 88.967°
升交点赤经 323.207°
平近点角 271.151°
近地点: 474.15km
远地点: 476.316km
周期: 94.106分钟
每日圈数: 15.301943
详细信息
卫星平台:
Starlink v2.0 mini
运营商:
太空探索技术公司
运营商所在国:
美国
制造商(研发单位):
太空探索技术公司
制造商所在国:
美国
使用方式:
暂无
卫星简介
星链(Starlink)计划是由太空探索技术公司(SpaceX)提出的一个巨型低轨卫星互联网星座项目,计划在2019年至2024年间在太空搭建由约1.2万颗卫星组成的“星链”网络,其中1584颗将部署在地球上空550千米处的近地轨道,并从2020年开始工作。该卫星仍在工作。
2D轨道图
3D轨道图
轨道高度分析图
轨道倾角分析图
轨道综合分析图
查看轨道综合分析图